| time (UTC) | temp C | wind direction | speed KPH | gust KPH | rain 1hr cm | rain 24hr cm | rain mn cm | humidity % | barometer mb |
| 20260506100242 | 22 | 245 | 11.3 | 19.3 | 0.00 | 0.00 | 0.00 | 46 | 987.6 |
| 20260506095240 | 22 | 182 | 8.0 | 19.3 | 0.00 | 0.00 | 0.00 | 48 | 987.3 |
| 20260506094739 | 22 | 207 | 8.0 | 12.9 | 0.00 | 0.00 | 0.00 | 51 | 987.3 |
| 20260506094239 | 22 | 231 | 8.0 | 12.9 | 0.00 | 0.00 | 0.00 | 51 | 987.6 |
| 20260506093739 | 21 | 174 | 9.7 | 17.7 | 0.00 | 0.00 | 0.00 | 49 | 987.6 |
| 20260506093239 | 21 | 201 | 9.7 | 17.7 | 0.00 | 0.00 | 0.00 | 53 | 987.6 |
| 20260506092740 | 21 | 234 | 8.0 | 16.1 | 0.00 | 0.00 | 0.00 | 53 | 987.8 |
| 20260506092238 | 21 | 208 | 9.7 | 16.1 | 0.00 | 0.00 | 0.00 | 51 | 987.7 |
| 20260506091738 | 21 | 227 | 8.0 | 22.5 | 0.00 | 0.00 | 0.00 | 49 | 987.9 |
| 20260506091239 | 21 | 235 | 4.8 | 11.3 | 0.00 | 0.00 | 0.00 | 54 | 987.8 |
| 20260506090737 | 21 | 219 | 6.4 | 8.0 | 0.00 | 0.00 | 0.00 | 54 | 987.6 |
| 20260506090238 | 21 | 208 | 9.7 | 14.5 | 0.00 | 0.00 | 0.00 | 52 | 987.6 |
| 20260506085737 | 21 | 162 | 9.7 | 17.7 | 0.00 | 0.00 | 0.00 | 53 | 987.6 |
| 20260506085236 | 21 | 153 | 9.7 | 16.1 | 0.00 | 0.00 | 0.00 | 53 | 987.6 |
| 20260506084738 | 21 | 224 | 9.7 | 14.5 | 0.00 | 0.00 | 0.00 | 53 | 987.7 |
| 20260506084236 | 21 | 264 | 9.7 | 14.5 | 0.00 | 0.00 | 0.00 | 52 | 987.5 |
| 20260506083735 | 21 | 229 | 9.7 | 19.3 | 0.00 | 0.00 | 0.00 | 52 | 987.7 |
| 20260506083235 | 21 | 245 | 9.7 | 19.3 | 0.00 | 0.00 | 0.00 | 53 | 987.7 |
| 20260506082735 | 20 | 257 | 11.3 | 17.7 | 0.00 | 0.00 | 0.00 | 54 | 987.6 |
| 20260506082235 | 20 | 176 | 9.7 | 19.3 | 0.00 | 0.00 | 0.00 | 53 | 987.6 |
| 20260506081734 | 21 | 257 | 4.8 | 14.5 | 0.00 | 0.00 | 0.00 | 53 | 987.5 |
| 20260506080734 | 20 | 267 | 4.8 | 12.9 | 0.00 | 0.00 | 0.00 | 53 | 987.4 |
| 20260506080235 | 20 | 269 | 3.2 | 8.0 | 0.00 | 0.00 | 0.00 | 55 | 987.3 |
| 20260506073232 | 18 | 264 | 6.4 | 14.5 | 0.00 | 0.00 | 0.00 | 56 | 987.4 |
| 20260506072731 | 18 | 224 | 6.4 | 9.7 | 0.00 | 0.00 | 0.00 | 55 | 987.4 |
| 20260506072231 | 18 | 290 | 8.0 | 12.9 | 0.00 | 0.00 | 0.00 | 58 | 987.4 |
| 20260506071731 | 18 | 252 | 8.0 | 12.9 | 0.00 | 0.00 | 0.00 | 56 | 987.4 |
| 20260506070732 | 18 | 225 | 6.4 | 11.3 | 0.00 | 0.00 | 0.00 | 57 | 987.5 |
| 20260506070232 | 18 | 227 | 4.8 | 12.9 | 0.00 | 0.00 | 0.00 | 56 | 987.4 |
| 20260506062228 | 16 | 109 | 6.4 | 11.3 | 0.00 | 0.00 | 0.00 | 60 | 987.2 |
| 20260506061728 | 15 | 83 | 8.0 | 9.7 | 0.00 | 0.00 | 0.00 | 61 | 987.2 |
| 20260506061227 | 15 | 115 | 8.0 | 12.9 | 0.00 | 0.00 | 0.00 | 61 | 987.1 |
| 20260506060727 | 15 | 113 | 8.0 | 11.3 | 0.00 | 0.00 | 0.00 | 60 | 987.1 |
| 20260506060227 | 15 | 105 | 9.7 | 17.7 | 0.00 | 0.00 | 0.00 | 61 | 987.1 |
| 20260506051224 | 13 | 86 | 9.7 | 14.5 | 0.00 | 0.00 | 0.00 | 65 | 987.0 |
| 20260506050724 | 13 | 84 | 11.3 | 16.1 | 0.00 | 0.00 | 0.00 | 64 | 986.9 |
| 20260506050225 | 13 | 110 | 11.3 | 14.5 | 0.00 | 0.00 | 0.00 | 64 | 986.9 |
| 20260506044722 | 12 | 105 | 8.0 | 11.3 | 0.00 | 0.00 | 0.00 | 67 | 986.8 |
| 20260506044222 | 12 | 82 | 8.0 | 12.9 | 0.00 | 0.00 | 0.00 | 66 | 986.8 |
| 20260506043722 | 12 | 98 | 6.4 | 12.9 | 0.00 | 0.00 | 0.00 | 67 | 986.9 |
| 20260506043222 | 12 | 79 | 3.2 | 6.4 | 0.00 | 0.00 | 0.00 | 67 | 986.9 |
| 20260506042721 | 12 | 88 | 4.8 | 4.8 | 0.00 | 0.00 | 0.00 | 68 | 986.9 |
| 20260506042221 | 12 | 80 | 11.3 | 14.5 | 0.00 | 0.00 | 0.00 | 68 | 986.8 |
| 20260506041721 | 11 | 84 | 14.5 | 17.7 | 0.00 | 0.00 | 0.00 | 68 | 986.6 |
| 20260506041220 | 11 | 82 | 14.5 | 17.7 | 0.00 | 0.00 | 0.00 | 69 | 986.6 |
| 20260506040720 | 11 | 93 | 14.5 | 17.7 | 0.00 | 0.00 | 0.00 | 69 | 986.6 |
| 20260506040220 | 11 | 86 | 14.5 | 19.3 | 0.00 | 0.00 | 0.00 | 69 | 986.4 |
| 20260506035720 | 11 | 92 | 14.5 | 17.7 | 0.00 | 0.00 | 0.00 | 69 | 986.4 |
| 20260506035219 | 11 | 93 | 16.1 | 19.3 | 0.00 | 0.00 | 0.00 | 69 | 986.4 |
| 20260506034719 | 11 | 89 | 17.7 | 20.9 | 0.00 | 0.00 | 0.00 | 70 | 986.3 |
| 20260506034219 | 11 | 93 | 16.1 | 20.9 | 0.00 | 0.00 | 0.00 | 70 | 986.3 |
| 20260506033718 | 11 | 92 | 16.1 | 19.3 | 0.00 | 0.00 | 0.00 | 70 | 986.4 |
| 20260506033218 | 11 | 91 | 16.1 | 19.3 | 0.00 | 0.00 | 0.00 | 71 | 986.4 |
| 20260506032718 | 11 | 81 | 17.7 | 22.5 | 0.00 | 0.00 | 0.00 | 71 | 986.3 |
| 20260506032218 | 11 | 75 | 16.1 | 22.5 | 0.00 | 0.00 | 0.00 | 70 | 986.3 |
| 20260506031717 | 11 | 85 | 14.5 | 20.9 | 0.00 | 0.00 | 0.00 | 71 | 986.4 |
| 20260506031217 | 11 | 91 | 14.5 | 19.3 | 0.00 | 0.00 | 0.00 | 70 | 986.3 |
| 20260506030717 | 11 | 104 | 14.5 | 19.3 | 0.00 | 0.00 | 0.00 | 70 | 986.4 |
| 20260506030216 | 11 | 107 | 11.3 | 19.3 | 0.00 | 0.00 | 0.00 | 69 | 986.4 |
| 20260506025716 | 11 | 101 | 11.3 | 14.5 | 0.00 | 0.00 | 0.00 | 69 | 986.3 |
| 20260506025216 | 11 | 94 | 11.3 | 16.1 | 0.00 | 0.00 | 0.00 | 69 | 986.2 |
| 20260506024716 | 12 | 95 | 11.3 | 16.1 | 0.00 | 0.00 | 0.00 | 67 | 986.2 |
| 20260506024215 | 12 | 118 | 11.3 | 19.3 | 0.00 | 0.00 | 0.00 | 66 | 986.2 |
| 20260506023715 | 12 | 112 | 9.7 | 17.7 | 0.00 | 0.00 | 0.00 | 65 | 986.1 |
| 20260506023215 | 12 | 127 | 11.3 | 17.7 | 0.00 | 0.00 | 0.00 | 65 | 986.1 |
| 20260506022714 | 12 | 131 | 12.9 | 19.3 | 0.00 | 0.00 | 0.00 | 64 | 986.0 |
| 20260506022214 | 12 | 101 | 12.9 | 19.3 | 0.00 | 0.00 | 0.00 | 64 | 986.0 |
| 20260506021714 | 12 | 109 | 11.3 | 19.3 | 0.00 | 0.00 | 0.00 | 63 | 985.9 |
| 20260506021214 | 12 | 120 | 9.7 | 14.5 | 0.00 | 0.00 | 0.00 | 63 | 985.9 |
| 20260506020713 | 13 | 131 | 11.3 | 16.1 | 0.00 | 0.00 | 0.00 | 62 | 986.0 |
| 20260506020213 | 13 | 114 | 11.3 | 16.1 | 0.00 | 0.00 | 0.00 | 62 | 986.1 |
| 20260506015713 | 12 | 111 | 8.0 | 14.5 | 0.00 | 0.00 | 0.00 | 64 | 986.2 |
| 20260506015212 | 12 | 209 | 6.4 | 12.9 | 0.00 | 0.00 | 0.00 | 64 | 986.2 |
| 20260506014712 | 12 | 113 | 6.4 | 9.7 | 0.00 | 0.00 | 0.00 | 64 | 986.2 |
| 20260506014212 | 13 | 214 | 6.4 | 12.9 | 0.00 | 0.00 | 0.00 | 63 | 986.3 |
| 20260506013712 | 13 | 117 | 4.8 | 11.3 | 0.00 | 0.00 | 0.00 | 63 | 986.1 |
| 20260506013211 | 13 | 129 | 8.0 | 9.7 | 0.00 | 0.00 | 0.00 | 62 | 986.0 |
| 20260506012711 | 13 | 136 | 12.9 | 16.1 | 0.00 | 0.00 | 0.00 | 61 | 985.8 |
| 20260506012211 | 13 | 110 | 14.5 | 17.7 | 0.00 | 0.00 | 0.00 | 61 | 985.8 |
| 20260506011710 | 13 | 103 | 16.1 | 19.3 | 0.00 | 0.00 | 0.00 | 61 | 985.6 |
| 20260506011210 | 13 | 115 | 16.1 | 20.9 | 0.00 | 0.00 | 0.00 | 61 | 985.7 |
| 20260506010710 | 13 | 103 | 14.5 | 20.9 | 0.00 | 0.00 | 0.00 | 60 | 985.7 |
| 20260506010210 | 14 | 108 | 14.5 | 17.7 | 0.00 | 0.00 | 0.00 | 60 | 985.6 |
| 20260506005710 | 14 | 108 | 14.5 | 22.5 | 0.00 | 0.00 | 0.00 | 59 | 985.6 |
| 20260506005210 | 14 | 98 | 14.5 | 19.3 | 0.00 | 0.00 | 0.00 | 59 | 985.6 |
| 20260506004709 | 14 | 105 | 14.5 | 20.9 | 0.00 | 0.00 | 0.00 | 58 | 985.6 |
| 20260506004209 | 15 | 98 | 14.5 | 22.5 | 0.00 | 0.00 | 0.00 | 57 | 985.7 |
| 20260506003708 | 15 | 107 | 14.5 | 19.3 | 0.00 | 0.00 | 0.00 | 57 | 985.5 |
| 20260506003208 | 15 | 103 | 12.9 | 20.9 | 0.00 | 0.00 | 0.00 | 57 | 985.6 |
| 20260506002708 | 15 | 94 | 12.9 | 17.7 | 0.00 | 0.00 | 0.00 | 58 | 985.5 |
| 20260506002207 | 15 | 84 | 12.9 | 17.7 | 0.00 | 0.00 | 0.00 | 57 | 985.6 |
| 20260506001707 | 15 | 102 | 12.9 | 19.3 | 0.00 | 0.00 | 0.00 | 57 | 985.6 |
| 20260506001207 | 15 | 110 | 12.9 | 17.7 | 0.00 | 0.00 | 0.00 | 58 | 985.6 |
| 20260506000707 | 15 | 110 | 12.9 | 19.3 | 0.00 | 0.00 | 0.00 | 58 | 985.6 |
| 20260506000206 | 15 | 115 | 12.9 | 17.7 | 0.00 | 0.00 | 0.00 | 58 | 985.6 |
| 20260505235706 | 15 | 105 | 11.3 | 20.9 | 0.00 | 0.00 | 0.00 | 58 | 985.6 |
| 20260505235206 | 14 | 107 | 9.7 | 16.1 | 0.00 | 0.00 | 0.00 | 59 | 985.6 |
| 20260505234705 | 14 | 134 | 8.0 | 12.9 | 0.00 | 0.00 | 0.00 | 60 | 985.6 |
| 20260505234205 | 14 | 137 | 8.0 | 12.9 | 0.00 | 0.00 | 0.00 | 59 | 985.7 |
| 20260505233705 | 14 | 127 | 8.0 | 14.5 | 0.00 | 0.00 | 0.00 | 59 | 985.7 |
| 20260505233205 | 15 | 115 | 8.0 | 11.3 | 0.00 | 0.00 | 0.00 | 58 | 985.8 |
| 20260505232704 | 15 | 105 | 9.7 | 12.9 | 0.00 | 0.00 | 0.00 | 58 | 985.8 |
| 20260505232204 | 15 | 105 | 11.3 | 14.5 | 0.00 | 0.00 | 0.00 | 58 | 985.7 |
| 20260505231704 | 15 | 105 | 11.3 | 16.1 | 0.00 | 0.00 | 0.00 | 57 | 985.7 |
| 20260505231203 | 15 | 113 | 11.3 | 16.1 | 0.00 | 0.00 | 0.00 | 57 | 985.9 |
| 20260505230703 | 15 | 110 | 12.9 | 16.1 | 0.00 | 0.00 | 0.00 | 56 | 985.8 |
| 20260505230203 | 15 | 119 | 12.9 | 16.1 | 0.00 | 0.00 | 0.00 | 56 | 985.8 |
| 20260505225703 | 15 | 98 | 12.9 | 17.7 | 0.00 | 0.00 | 0.00 | 56 | 985.9 |
| 20260505225202 | 16 | 96 | 12.9 | 17.7 | 0.00 | 0.00 | 0.00 | 55 | 985.9 |
| 20260505224702 | 16 | 101 | 12.9 | 19.3 | 0.00 | 0.00 | 0.00 | 55 | 986.0 |
| 20260505224202 | 16 | 112 | 11.3 | 14.5 | 0.00 | 0.00 | 0.00 | 55 | 986.0 |
| 20260505223701 | 16 | 110 | 11.3 | 16.1 | 0.00 | 0.00 | 0.00 | 55 | 986.1 |
| 20260505223201 | 16 | 101 | 11.3 | 12.9 | 0.00 | 0.00 | 0.00 | 55 | 986.1 |
| 20260505222701 | 16 | 120 | 9.7 | 16.1 | 0.00 | 0.00 | 0.00 | 55 | 986.0 |
| 20260505222201 | 16 | 125 | 9.7 | 12.9 | 0.00 | 0.00 | 0.00 | 56 | 986.1 |
| 20260505221700 | 16 | 98 | 9.7 | 14.5 | 0.00 | 0.00 | 0.00 | 56 | 986.1 |
| 20260505221200 | 16 | 105 | 11.3 | 14.5 | 0.00 | 0.00 | 0.00 | 56 | 986.2 |
| 20260505220700 | 16 | 110 | 9.7 | 16.1 | 0.00 | 0.00 | 0.00 | 55 | 986.1 |
| 20260505220159 | 16 | 93 | 9.7 | 14.5 | 0.00 | 0.00 | 0.00 | 55 | 986.0 |
| 20260505215659 | 16 | 114 | 9.7 | 12.9 | 0.00 | 0.00 | 0.00 | 55 | 986.1 |
| 20260505215159 | 16 | 112 | 9.7 | 12.9 | 0.00 | 0.00 | 0.00 | 55 | 986.0 |
| 20260505214659 | 16 | 113 | 11.3 | 14.5 | 0.00 | 0.00 | 0.00 | 55 | 986.0 |
| 20260505214158 | 16 | 106 | 11.3 | 14.5 | 0.00 | 0.00 | 0.00 | 54 | 985.9 |
| 20260505213658 | 16 | 88 | 11.3 | 14.5 | 0.00 | 0.00 | 0.00 | 54 | 986.0 |
| 20260505213158 | 16 | 106 | 8.0 | 17.7 | 0.00 | 0.00 | 0.00 | 54 | 986.1 |
| 20260505212658 | 16 | 99 | 4.8 | 12.9 | 0.00 | 0.00 | 0.00 | 55 | 986.0 |
| 20260505212157 | 16 | 103 | 4.8 | 6.4 | 0.00 | 0.00 | 0.00 | 54 | 986.0 |
| 20260505211657 | 16 | 98 | 4.8 | 6.4 | 0.00 | 0.00 | 0.00 | 54 | 985.9 |
| 20260505211157 | 16 | 108 | 4.8 | 6.4 | 0.00 | 0.00 | 0.00 | 53 | 986.0 |
| 20260505210656 | 16 | 122 | 4.8 | 6.4 | 0.00 | 0.00 | 0.00 | 53 | 986.0 |
| 20260505210156 | 16 | 121 | 4.8 | 6.4 | 0.00 | 0.00 | 0.00 | 53 | 985.9 |
| 20260505205656 | 17 | 113 | 4.8 | 8.0 | 0.00 | 0.00 | 0.00 | 53 | 986.0 |
| 20260505205155 | 17 | 110 | 4.8 | 8.0 | 0.00 | 0.00 | 0.00 | 53 | 985.9 |
| 20260505204655 | 17 | 108 | 4.8 | 8.0 | 0.00 | 0.00 | 0.00 | 52 | 985.9 |
| 20260505204155 | 17 | 115 | 4.8 | 6.4 | 0.00 | 0.00 | 0.00 | 52 | 985.9 |
| 20260505203655 | 17 | 117 | 6.4 | 8.0 | 0.00 | 0.00 | 0.00 | 52 | 985.9 |
| 20260505203154 | 17 | 105 | 4.8 | 8.0 | 0.00 | 0.00 | 0.00 | 51 | 986.0 |
| 20260505202654 | 17 | 103 | 4.8 | 6.4 | 0.00 | 0.00 | 0.00 | 52 | 986.0 |
| 20260505202154 | 17 | 97 | 3.2 | 6.4 | 0.00 | 0.00 | 0.00 | 52 | 985.9 |
| 20260505201654 | 17 | 103 | 3.2 | 6.4 | 0.00 | 0.00 | 0.00 | 52 | 986.0 |
| 20260505201153 | 17 | 110 | 4.8 | 8.0 | 0.00 | 0.00 | 0.00 | 52 | 986.0 |
| 20260505200653 | 17 | 103 | 3.2 | 6.4 | 0.00 | 0.00 | 0.00 | 51 | 985.9 |
| 20260505200153 | 17 | 108 | 3.2 | 6.4 | 0.00 | 0.00 | 0.00 | 51 | 985.8 |
| 20260505195652 | 17 | 135 | 4.8 | 6.4 | 0.00 | 0.00 | 0.00 | 51 | 985.9 |
| 20260505195152 | 18 | 139 | 4.8 | 8.0 | 0.00 | 0.00 | 0.00 | 50 | 985.9 |
| 20260505194652 | 18 | 110 | 4.8 | 8.0 | 0.00 | 0.00 | 0.00 | 49 | 985.7 |
| 20260505194151 | 18 | 105 | 6.4 | 6.4 | 0.00 | 0.00 | 0.00 | 48 | 985.6 |
| 20260505193651 | 18 | 120 | 6.4 | 8.0 | 0.00 | 0.00 | 0.00 | 48 | 985.7 |
| 20260505193151 | 18 | 98 | 6.4 | 9.7 | 0.00 | 0.00 | 0.00 | 47 | 985.6 |
| 20260505192651 | 18 | 96 | 4.8 | 8.0 | 0.00 | 0.00 | 0.00 | 47 | 985.7 |
| 20260505192150 | 18 | 101 | 4.8 | 8.0 | 0.00 | 0.00 | 0.00 | 48 | 985.7 |
| 20260505191650 | 18 | 108 | 3.2 | 8.0 | 0.00 | 0.00 | 0.00 | 48 | 985.7 |
| 20260505191150 | 18 | 127 | 3.2 | 3.2 | 0.00 | 0.00 | 0.00 | 48 | 985.7 |
| 20260505190650 | 19 | 111 | 4.8 | 6.4 | 0.00 | 0.00 | 0.00 | 47 | 985.6 |
| 20260505190149 | 20 | 113 | 4.8 | 6.4 | 0.00 | 0.00 | 0.00 | 45 | 985.6 |
| 20260505185649 | 20 | 101 | 6.4 | 6.4 | 0.00 | 0.00 | 0.00 | 45 | 985.6 |
| 20260505185149 | 20 | 104 | 6.4 | 9.7 | 0.00 | 0.00 | 0.00 | 45 | 985.7 |
| 20260505184648 | 20 | 109 | 4.8 | 6.4 | 0.00 | 0.00 | 0.00 | 45 | 985.7 |
| 20260505184148 | 20 | 117 | 4.8 | 6.4 | 0.00 | 0.00 | 0.00 | 45 | 985.6 |
| 20260505183648 | 20 | 113 | 4.8 | 6.4 | 0.00 | 0.00 | 0.00 | 44 | 985.6 |
| 20260505183148 | 20 | 118 | 4.8 | 6.4 | 0.00 | 0.00 | 0.00 | 44 | 985.6 |
| 20260505182147 | 21 | 108 | 4.8 | 6.4 | 0.00 | 0.00 | 0.00 | 43 | 985.6 |
| 20260505181647 | 21 | 125 | 4.8 | 6.4 | 0.00 | 0.00 | 0.00 | 42 | 985.5 |
| 20260505181146 | 21 | 115 | 4.8 | 6.4 | 0.00 | 0.00 | 0.00 | 41 | 985.4 |
| 20260505180646 | 21 | 110 | 4.8 | 6.4 | 0.00 | 0.00 | 0.00 | 40 | 985.4 |
| 20260505180147 | 22 | 98 | 3.2 | 4.8 | 0.00 | 0.00 | 0.00 | 39 | 985.5 |
| 20260505175145 | 22 | 127 | 1.6 | 4.8 | 0.00 | 0.00 | 0.00 | 38 | 985.5 |
| 20260505174645 | 22 | 139 | 1.6 | 3.2 | 0.00 | 0.00 | 0.00 | 38 | 985.5 |
| 20260505173646 | 22 | 143 | 1.6 | 3.2 | 0.00 | 0.00 | 0.00 | 37 | 985.5 |
| 20260505172649 | 23 | 135 | 1.6 | 3.2 | 0.00 | 0.00 | 0.00 | 36 | 985.6 |
| 20260505171146 | 24 | 148 | 1.6 | 3.2 | 0.00 | 0.00 | 0.00 | 34 | 985.4 |
| 20260505165143 | 25 | 198 | 3.2 | 6.4 | 0.00 | 0.00 | 0.00 | 34 | 985.6 |
| 20260505164143 | 25 | 202 | 1.6 | 4.8 | 0.00 | 0.00 | 0.00 | 34 | 985.6 |
| 20260505163642 | 25 | 211 | 1.6 | 3.2 | 0.00 | 0.00 | 0.00 | 34 | 985.7 |
| 20260505161143 | 25 | 231 | 6.4 | 9.7 | 0.00 | 0.00 | 0.00 | 31 | 985.8 |
| 20260505160142 | 25 | 199 | 4.8 | 9.7 | 0.00 | 0.00 | 0.00 | 31 | 985.8 |
| 20260505153139 | 26 | 229 | 8.0 | 12.9 | 0.00 | 0.00 | 0.00 | 31 | 986.0 |
| 20260505152639 | 25 | 227 | 8.0 | 16.1 | 0.00 | 0.00 | 0.00 | 29 | 986.1 |
| 20260505152138 | 26 | 224 | 6.4 | 14.5 | 0.00 | 0.00 | 0.00 | 30 | 986.1 |
| 20260505151138 | 26 | 174 | 9.7 | 17.7 | 0.00 | 0.00 | 0.00 | 31 | 986.2 |
| 20260505150137 | 25 | 239 | 8.0 | 19.3 | 0.00 | 0.00 | 0.00 | 29 | 986.2 |
| 20260505140634 | 26 | 259 | 8.0 | 16.1 | 0.00 | 0.00 | 0.00 | 29 | 986.8 |
| 20260505140134 | 25 | 221 | 9.7 | 14.5 | 0.00 | 0.00 | 0.00 | 29 | 986.8 |
| 20260505130130 | 25 | 255 | 6.4 | 17.7 | 0.00 | 0.00 | 0.00 | 30 | 987.5 |
| 20260505124129 | 25 | 234 | 4.8 | 11.3 | 0.00 | 0.00 | 0.00 | 33 | 987.7 |
| 20260505121128 | 24 | 283 | 11.3 | 16.1 | 0.00 | 0.00 | 0.00 | 32 | 988.2 |
| 20260505120127 | 24 | 231 | 11.3 | 17.7 | 0.00 | 0.00 | 0.00 | 33 | 988.3 |
| 20260505115126 | 25 | 243 | 4.8 | 9.7 | 0.00 | 0.00 | 0.00 | 34 | 988.3 |
| 20260505114626 | 24 | 179 | 6.4 | 12.9 | 0.00 | 0.00 | 0.00 | 32 | 988.5 |
| 20260505113625 | 23 | 255 | 9.7 | 14.5 | 0.00 | 0.00 | 0.00 | 32 | 988.6 |
| 20260505113125 | 23 | 291 | 11.3 | 20.9 | 0.00 | 0.00 | 0.00 | 31 | 988.8 |
| 20260505112124 | 23 | 263 | 6.4 | 17.7 | 0.00 | 0.00 | 0.00 | 32 | 988.7 |
| 20260505111624 | 23 | 240 | 4.8 | 11.3 | 0.00 | 0.00 | 0.00 | 33 | 988.6 |
| 20260505111124 | 23 | 15 | 8.0 | 11.3 | 0.00 | 0.00 | 0.00 | 31 | 988.6 |
| 20260505110624 | 24 | 230 | 8.0 | 12.9 | 0.00 | 0.00 | 0.00 | 31 | 988.8 |
| 20260505110123 | 24 | 218 | 6.4 | 14.5 | 0.00 | 0.00 | 0.00 | 34 | 988.7 |
| 20260505102121 | 22 | 243 | 6.4 | 14.5 | 0.00 | 0.00 | 0.00 | 33 | 989.1 |
| 20260505101121 | 22 | 211 | 6.4 | 12.9 | 0.00 | 0.00 | 0.00 | 34 | 989.2 |